Location: Skalnate Pleso
(49.1889°N, 20.2450°E)
Time: 22:19:00
(UTC+01:00)

PAYLOAD A - Pass Details

Date: 19 November 2019
Orbit: 693 x 831 km, 98.3° (Epoch: 11 December)

Event Time Altitude Azimuth Distance (km) Brightness Sun altitude
Rises 03:53:55 0° 15° (NNE) 3,333 7.5 -29.2°
Reaches altitude 10° 03:56:15 10° 17° (NNE) 2,413 6.8 -28.8°
Maximum altitude 04:01:38 76° 104° (ESE) 855 4.2 -27.9°
Enters shadow 04:03:35 41° 181° (S) 1,187 4.9 -27.6°
